Volver al catálogo

STARLINK-6366

ActivoComunicacionesVLEO
NORAD 57380·PAYLOAD·🇺🇸 United States

Lanzado Jul 16, 2023 desde Cape Canaveral Space Force Station

Loading…

Próximos Pases (próximas 24 horas)

TLE

ActualizadoSource: CelesTrak SupGP

Época: Sep 15, 2026, 02:10 UTC

1 57380C 23099BE  26258.09076389 -.00024124  00000+0 -87394-3 0  2587
2 57380  43.0031 222.8683 0001377 268.4907  62.3122 15.27583458    16

Sigue STARLINK-6366 en tiempo real con AllMySat

Download on the App Store